This is the latest recevied weather packets stored in our database for station/object IU3OVK-13. If no packets are shown the sender has not sent any weather packets the latest 10 day(s).
| Time | Temp. | Humidity | Pressure | Rain* | Wind** | Luminosity | Snow |
|---|---|---|---|---|---|---|---|
| 1788347766 | 31.67° C | 92% | 1012.2 hPa | - | - | - | - |
| 1788347144 | 38.33° C | 67% | 1002 hPa | - | - | - | - |
| 1788346524 | 40° C | 66% | 1010.3 hPa | - | - | - | - |
| 1788345904 | 44.44° C | 61% | 970.2 hPa | - | - | - | - |
| 1788344663 | 40.56° C | 64% | 974.3 hPa | - | - | - | - |
| 1788344043 | 42.78° C | 64% | 980.1 hPa | - | - | - | - |
| 1788343423 | 41.67° C | 64% | 975.2 hPa | - | - | - | - |
| 1788342803 | 44.44° C | 62% | 957.4 hPa | - | - | - | - |
| 1788342182 | 43.89° C | 63% | 959.4 hPa | - | - | - | - |
| 1788341593 | 45.56° C | 63% | 960.6 hPa | - | - | - | - |
| 1788341562 | 45.56° C | 63% | 960.6 hPa | - | - | - | - |
| 1788340942 | 43.33° C | 67% | 978.5 hPa | - | - | - | - |
| 1788339702 | 42.78° C | 68% | 975.3 hPa | - | - | - | - |
| 1788339081 | 41.67° C | 72% | 989.7 hPa | - | - | - | - |
| 1788338461 | 40.56° C | 74% | 994.6 hPa | - | - | - | - |
| 1788337841 | 36.67° C | 79% | 1014.9 hPa | - | - | - | - |
| 1788336601 | 39.44° C | 79% | 996.6 hPa | - | - | - | - |
| 1788335981 | 39.44° C | 83% | 1000.6 hPa | - | - | - | - |
| 1788334740 | 35° C | 95% | 1010.6 hPa | - | - | - | - |
| 1788334120 | 36.11° C | 97% | 1010.2 hPa | - | - | - | - |
| 1788333500 | 36.67° C | 96% | 1007.4 hPa | - | - | - | - |
| 1788332880 | 33.33° C | 99% | 1012.7 hPa | - | - | - | - |
| 1788332260 | 33.33° C | 99% | 1010.8 hPa | - | - | - | - |
| 1788331639 | 30° C | 99% | 1013.6 hPa | - | - | - | - |
| 1788331019 | 33.89° C | 99% | 1011.1 hPa | - | - | - | - |
* Rain since midnight (hover to see other rain measurements)
** Current wind speed in m/s (hover to see current wind gust speed)